Left ArrowRight Arrow

Hourly Observations for May 7, 2015

Temp ( °F °C ) Dew Point ( °F °C ) Humidity (%) Winds ( mph kmh ) Pressure ( in mb ) Visibility ( mi km ) Precip ( " mm )
12:15 am 00:15 Clear 61 16 57 14 88 88 SSE 9 15 29.56 1001 10 16 0.00 0.00
12:35 am 00:35 Clear 61 16 55 13 83 83 S 10 17 29.56 1001 10 16 0.00 0.00
12:55 am 00:55 Clear 61 16 55 13 83 83 S 10 17 29.56 1001 10 16 0.00 0.00
1:15 am 01:15 Clear 63 17 61 16 94 94 S 17 28 29.59 1002 10 16 0.00 0.00
1:35 am 01:35 Mostly Clear 63 17 61 16 94 94 S 16 26 29.59 1002 10 16 0.00 0.00
1:55 am 01:55 Mostly Cloudy 63 17 61 16 94 94 S 18 30 29.59 1002 10 16 0.00 0.00
2:15 am 02:15 Mostly Cloudy 63 17 61 16 94 94 S 18 30 29.59 1002 10 16 0.00 0.00
2:35 am 02:35 Cloudy 63 17 61 16 94 94 SSW 17 28 29.59 1002 10 16 0.00 0.00
2:55 am 02:55 Mostly Cloudy 63 17 61 16 94 94 SSW 13 20 29.56 1001 10 16 0.00 0.00
3:15 am 03:15 Mostly Clear 63 17 61 16 94 94 SW 9 15 29.56 1001 7 11 0.00 0.00
3:35 am 03:35 Clear 63 17 59 15 88 88 SW 13 20 29.59 1002 10 16 0.00 0.00
3:55 am 03:55 Clear 63 17 57 14 83 83 SSW 10 17 29.59 1002 10 16 0.00 0.00
4:15 am 04:15 Partly Cloudy 61 16 57 14 88 88 SSW 10 17 29.59 1002 10 16 0.00 0.00
4:35 am 04:35 Mostly Cloudy 61 16 55 13 83 83 SW 10 17 29.59 1002 10 16 0.00 0.00
4:55 am 04:55 Partly Cloudy 61 16 55 13 83 83 SW 10 17 29.65 1004 10 16 0.00 0.00
5:15 am 05:15 Mostly Cloudy 61 16 55 13 83 83 SW 13 20 29.65 1004 10 16 0.00 0.00
5:35 am 05:35 Cloudy 59 15 55 13 88 88 SW 14 22 29.65 1004 10 16 0.00 0.00
5:55 am 05:55 Cloudy 59 15 54 12 82 82 WSW 16 26 29.68 1005 10 16 0.00 0.00
6:15 am 06:15 Partly Cloudy 59 15 54 12 82 82 WSW 15 24 29.68 1005 10 16 0.00 0.00
6:35 am 06:35 Mostly Cloudy 59 15 54 12 82 82 WSW 15 24 29.68 1005 10 16 0.00 0.00
6:55 am 06:55 Mostly Cloudy 59 15 54 12 82 82 WSW 16 26 29.71 1006 10 16 0.00 0.00
7:15 am 07:15 Mostly Cloudy 57 14 54 12 88 88 W 15 24 29.71 1006 10 16 0.00 0.00
7:35 am 07:35 Cloudy 57 14 54 12 88 88 W 16 26 29.71 1006 10 16 0.00 0.00
7:55 am 07:55 Partly Cloudy 57 14 52 11 82 82 W 13 20 29.71 1006 10 16 0.00 0.00
8:15 am 08:15 Sunny 59 15 54 12 82 82 WNW 18 30 29.71 1006 10 16 0.00 0.00
8:35 am 08:35 Partly Cloudy 59 15 54 12 82 82 NW 18 30 29.71 1006 10 16 0.00 0.00
8:55 am 08:55 Mostly Cloudy 57 14 54 12 88 88 WNW 17 28 29.74 1007 10 16 0.00 0.00
9:15 am 09:15 Cloudy 57 14 54 12 88 88 WNW 13 20 29.77 1008 10 16 0.00 0.00
9:35 am 09:35 Cloudy 57 14 52 11 82 82 WNW 14 22 29.77 1008 10 16 0.00 0.00
9:55 am 09:55 Cloudy 59 15 52 11 77 77 NW 17 28 29.77 1008 10 16 0.00 0.00
10:15 am 10:15 Cloudy 57 14 52 11 82 82 NW 14 22 29.77 1008 10 16 0.00 0.00
10:35 am 10:35 Cloudy 59 15 52 11 77 77 W 14 22 29.80 1009 10 16 0.00 0.00
10:55 am 10:55 Cloudy 59 15 52 11 77 77 WNW 16 26 29.80 1009 10 16 0.00 0.00
11:15 am 11:15 Cloudy 61 16 52 11 72 72 NW 14 22 29.83 1010 10 16 0.00 0.00
11:35 am 11:35 Cloudy 61 16 52 11 72 72 NW 14 22 29.83 1010 10 16 0.00 0.00
11:55 am 11:55 Cloudy 61 16 52 11 72 72 NW 15 24 29.83 1010 10 16 0.00 0.00
12:15 pm 12:15 Cloudy 63 17 52 11 68 68 WNW 13 20 29.83 1010 10 16 0.00 0.00
12:35 pm 12:35 Cloudy 63 17 52 11 68 68 NW 15 24 29.83 1010 10 16 0.00 0.00
12:55 pm 12:55 Cloudy 64 18 52 11 64 64 NW 15 24 29.83 1010 10 16 0.00 0.00
1:15 pm 13:15 Cloudy 64 18 52 11 64 64 NW 14 22 29.83 1010 10 16 0.00 0.00
1:35 pm 13:35 Cloudy 64 18 52 11 64 64 NNW 14 22 29.83 1010 10 16 0.00 0.00
1:55 pm 13:55 Cloudy 64 18 52 11 64 64 WNW 10 17 29.83 1010 10 16 0.00 0.00
2:15 pm 14:15 Cloudy 66 19 52 11 60 60 NW 16 26 29.80 1009 10 16 0.00 0.00
2:35 pm 14:35 Mostly Cloudy 66 19 52 11 60 60 NW 13 20 29.80 1009 10 16 0.00 0.00
2:55 pm 14:55 Mostly Cloudy 66 19 52 11 60 60 NW 12 19 29.80 1009 10 16 0.00 0.00
3:15 pm 15:15 Partly Cloudy 66 19 52 11 60 60 WNW 13 20 29.80 1009 10 16 0.00 0.00
3:35 pm 15:35 Mostly Cloudy 66 19 52 11 60 60 N 12 19 29.80 1009 10 16 0.00 0.00
3:55 pm 15:55 Partly Cloudy 66 19 52 11 60 60 NNW 13 20 29.80 1009 10 16 0.00 0.00
4:15 pm 16:15 Mostly Cloudy 66 19 52 11 60 60 NNW 10 17 29.80 1009 10 16 0.00 0.00
4:35 pm 16:35 Mostly Cloudy 66 19 50 10 56 56 NNW 15 24 29.80 1009 10 16 0.00 0.00
4:55 pm 16:55 Partly Cloudy 66 19 52 11 60 60 NNW 15 24 29.80 1009 10 16 0.00 0.00
5:15 pm 17:15 Mostly Cloudy 66 19 50 10 56 56 NNW 14 22 29.80 1009 10 16 0.00 0.00
5:35 pm 17:35 Mostly Cloudy 66 19 50 10 56 56 NNW 14 22 29.80 1009 10 16 0.00 0.00
5:55 pm 17:55 Mostly Cloudy 66 19 50 10 56 56 NNW 15 24 29.80 1009 10 16 0.00 0.00
6:15 pm 18:15 Cloudy 64 18 50 10 60 60 N 17 28 29.85 1011 10 16 0.00 0.00
6:35 pm 18:35 Cloudy 63 17 48 9 59 59 N 15 24 29.85 1011 10 16 0.00 0.00
6:55 pm 18:55 Cloudy 63 17 48 9 59 59 N 15 24 29.85 1011 10 16 0.00 0.00
7:15 pm 19:15 Cloudy 63 17 48 9 59 59 N 14 22 29.88 1012 10 16 0.00 0.00
7:35 pm 19:35 Cloudy 61 16 48 9 63 63 N 14 22 29.88 1012 10 16 0.00 0.00
7:55 pm 19:55 Cloudy 61 16 48 9 63 63 N 16 26 29.88 1012 10 16 0.00 0.00
8:15 pm 20:15 Cloudy 61 16 46 8 59 59 N 16 26 29.88 1012 10 16 0.00 0.00
8:35 pm 20:35 Cloudy 57 14 46 8 67 67 N 16 26 29.91 1013 10 16 0.00 0.00
8:55 pm 20:55 Cloudy 57 14 46 8 67 67 N 17 28 29.94 1014 10 16 0.00 0.00
9:15 pm 21:15 Cloudy 57 14 46 8 67 67 N 16 26 29.94 1014 10 16 0.00 0.00
9:35 pm 21:35 Cloudy 55 13 46 8 72 72 N 14 22 29.97 1015 10 16 0.00 0.00
9:55 pm 21:55 Cloudy 55 13 45 7 67 67 N 15 24 29.97 1015 10 16 0.00 0.00
10:15 pm 22:15 Cloudy 55 13 45 7 67 67 N 14 22 29.97 1015 10 16 0.00 0.00
10:35 pm 22:35 Cloudy 55 13 45 7 67 67 N 16 26 29.97 1015 10 16 0.00 0.00
10:55 pm 22:55 Cloudy 55 13 45 7 67 67 N 17 28 29.97 1015 10 16 0.00 0.00
11:15 pm 23:15 Cloudy 54 12 45 7 72 72 N 17 28 29.97 1015 10 16 0.00 0.00
11:35 pm 23:35 Cloudy 54 12 45 7 72 72 N 16 26 29.97 1015 10 16 0.00 0.00
11:55 pm 23:55 Cloudy 54 12 45 7 72 72 N 16 26 30.03 1017 10 16 0.00 0.00

Powered by Vaisala Xweather